RH
4 8 12 13 4 2 4 13 50 50 94 93 54 55 76 58 34 26 23 27 36 41 54 48 34 31 37 47 48 49 47 39 28 25 21 16 11 10 12 27 36 39 44 45
4 2 7 8 8 3 3 3 19 61 71 96 97 92 84 55 69 40 25 24 27 31 31 39 32 31 37 41 43 42 40 36 24 20 20 16 13 11 16 27 26 41 39 33
5 5 5 6 6 5 3 3 4 32 69 94 97 94 96 52 43 81 50 42 27 23 26 28 31 31 35 38 37 34 33 27 22 20 19 16 14 12 12 14 22 44 44 32
6 6 5 6 6 5 4 10 23 37 70 89 91 96 97 65 53 62 74 32 36 27 20 23 26 28 28 36 34 30 28 25 22 21 18 15 14 12 11 13 23 53 48 30
8 8 7 5 6 8 5 8 8 35 57 84 91 98 80 74 58 44 84 64 39 26 28 18 20 22 24 27 27 27 26 24 21 19 16 14 13 12 11 21 39 56 46 22
11 9 8 7 7 7 5 5 8 14 54 72 66 99 68 86 29 26 46 72 85 60 45 36 18 17 18 22 29 29 26 22 18 16 15 14 14 15 19 27 41 59 32 10
14 11 9 8 8 7 8 8 6 9 30 30 29 88 44 71 65 65 47 70 84 73 74 73 82 32 29 40 36 29 24 18 17 16 16 18 22 35 42 52 58 55 11 4
17 14 12 12 9 9 8 9 9 6 6 7 8 36 5 50 79 98 95 88 62 64 88 93 85 68 50 29 30 27 26 23 23 24 28 36 43 44 42 40 50 18 4 2
21 17 40 79 60 24 9 10 12 44 15 58 21 48 23 31 73 66 99 62 72 50 35 58 83 74 49 58 60 46 41 46 55 59 62 63 58 47 48 43 28 5 3 2
37 24 20 40 88 60 40 30 27 71 55 49 6 23 46 50 50 57 84 96 57 30 48 51 68 96 96 91 87 72 64 70 64 77 82 73 71 59 53 23 8 3 2 2
47 30 32 41 36 92 97 35 29 47 87 84 38 9 9 38 61 86 81 70 55 51 38 55 58 68 80 88 93 86 84 84 86 90 87 84 76 68 52 12 4 3 2 2
52 26 25 26 46 77 100 91 99 72 26 57 92 22 28 56 68 84 94 99 92 85 74 70 47 60 40 66 72 76 73 76 73 77 91 88 68 47 23 6 4 3 2 3
39 36 30 26 28 26 55 94 100 99 100 78 74 38 16 50 77 98 95 99 94 64 56 88 67 36 49 51 51 60 66 59 53 68 85 63 29 8 6 4 3 3 3 3
31 30 34 30 34 96 100 100 97 100 100 86 93 16 9 19 79 100 99 91 100 96 78 89 76 52 35 51 59 52 54 62 59 66 82 29 10 10 6 4 3 3 3 3
44 40 35 27 20 44 88 86 100 100 89 99 55 28 7 25 40 87 100 90 96 96 77 96 66 42 35 36 41 43 53 54 66 70 54 21 13 9 6 4 4 4 4 4
62 48 44 30 26 20 31 84 80 95 85 74 53 50 12 88 55 87 100 98 76 75 98 88 54 36 35 55 52 65 64 72 77 67 46 26 22 16 11 7 5 5 5 6
35 35 32 21 21 18 25 21 59 60 100 100 100 99 58 97 100 56 100 79 92 99 80 60 64 54 62 61 55 66 86 89 78 60 61 56 27 19 12 7 6 6 7 7
20 28 26 17 22 21 5 19 35 97 87 98 97 94 72 98 96 100 66 91 87 96 78 49 64 67 60 54 63 88 96 94 92 65 39 30 21 20 16 10 8 9 8 8
23 28 26 29 21 12 6 9 20 41 51 94 100 100 99 100 98 99 73 98 65 49 91 81 62 62 68 67 86 82 90 92 75 57 42 27 26 18 14 13 12 9 8 12
60 36 38 31 26 17 3 12 51 64 99 96 98 81 75 76 89 89 100 66 76 99 82 74 55 52 65 80 80 71 78 65 61 53 45 39 37 24 15 11 9 8 11 14
50 53 88 50 50 18 13 16 30 100 90 100 100 86 64 54 78 87 92 93 88 91 99 90 59 59 86 80 79 73 70 70 69 61 53 55 49 40 22 14 10 10 15 12
43 70 91 100 100 46 31 36 55 70 98 70 85 90 100 96 74 88 87 81 81 57 98 94 78 69 86 91 94 86 62 52 57 67 69 50 58 60 46 19 11 15 16 12
27 48 83 80 70 56 100 76 97 75 52 68 61 67 63 76 99 100 100 65 75 40 94 94 82 87 99 91 100 100 95 73 62 59 64 49 72 65 32 17 12 18 16 13
8 22 42 57 33 77 100 100 86 97 77 52 64 50 97 100 98 92 93 100 83 52 74 86 76 84 90 98 95 100 99 86 85 78 51 54 51 25 18 13 14 20 15 15
12 16 20 28 27 81 100 100 100 74 47 44 76 95 72 100 100 99 84 90 94 84 51 46 59 54 57 63 70 76 99 99 97 71 70 59 38 35 20 18 17 21 17 18
11 7 10 11 35 44 59 100 94 84 87 32 56 78 100 100 82 71 56 54 54 92 69 44 65 66 44 42 56 66 72 91 100 92 65 72 91 47 32 28 21 24 19 21
Wind_Speed
26 30 32 38 43 43 42 42 33 37 28 41 46 43 45 50 44 47 50 49 48 45 45 46 44 42 36 38 36 35 33 31 31 28 26 26 25 25 26 27 27 29 27 25
26 25 30 37 41 45 46 45 43 31 28 41 44 41 44 54 47 47 48 49 50 49 46 47 46 44 41 40 38 38 36 34 34 32 29 29 27 27 27 29 29 31 30 28
27 24 27 33 39 45 48 48 45 41 28 39 46 47 37 52 54 47 51 50 51 53 48 49 49 46 44 44 41 41 40 38 36 35 33 32 31 29 29 32 32 32 33 31
29 28 29 31 33 41 47 43 42 43 38 42 44 42 39 43 41 47 47 49 52 53 49 50 51 49 48 47 45 45 43 41 40 39 37 35 33 33 32 33 33 35 34 33
28 30 32 33 31 34 40 47 52 46 51 39 37 39 45 46 49 50 48 50 50 55 52 50 53 52 51 50 49 47 46 44 43 42 41 38 37 37 35 33 34 38 35 33
33 35 36 36 35 33 34 42 48 51 44 58 47 39 43 44 61 59 54 53 51 56 55 52 50 54 53 51 49 48 48 46 45 44 42 40 39 37 36 36 38 39 35 33
36 36 38 39 37 33 34 37 41 46 53 57 62 44 56 47 47 55 50 42 40 51 49 56 60 56 49 49 50 52 50 48 45 43 42 41 40 38 38 37 40 38 33 31
40 40 38 38 40 38 38 37 40 46 50 57 59 65 75 57 45 29 27 36 45 57 44 54 59 55 55 55 51 52 50 48 46 45 44 43 41 42 37 40 39 35 32 29
43 46 33 26 31 42 40 45 40 37 38 35 46 42 51 54 46 46 39 50 35 35 47 55 48 58 56 53 52 53 50 49 48 47 46 44 42 40 39 39 38 32 30 29
48 53 47 40 31 40 44 39 38 34 40 41 48 51 44 37 37 37 37 55 61 61 50 43 40 42 62 53 60 58 54 52 53 52 50 47 44 42 40 40 36 32 30 30
50 50 46 45 50 35 30 44 43 42 36 39 43 51 52 47 32 37 41 53 57 62 53 41 51 45 43 54 57 60 59 55 52 50 49 47 45 45 42 40 35 31 31 31
51 53 54 51 46 46 35 39 29 34 48 44 39 48 37 35 35 45 40 52 52 53 46 38 44 47 55 43 38 40 44 46 46 46 45 44 43 42 41 37 33 31 31 31
51 52 54 52 51 50 50 41 38 39 35 40 45 47 35 40 43 38 34 44 49 50 49 38 35 47 48 47 44 41 41 39 39 42 41 40 42 41 38 35 33 31 32 32
49 49 49 53 52 36 34 37 41 37 39 41 39 50 43 39 50 34 29 45 44 49 44 37 36 42 45 46 44 42 40 41 41 41 39 39 39 38 35 33 32 33 33 32
55 56 52 53 56 51 49 50 45 47 45 44 49 51 44 42 47 43 41 42 37 49 45 44 29 33 38 45 45 43 42 41 40 37 40 39 37 36 35 33 33 34 32 32
57 62 61 61 59 61 58 55 54 44 44 44 49 51 45 33 41 44 33 45 37 59 47 27 31 32 37 32 32 39 42 40 39 41 43 39 36 36 37 34 34 33 33 32
59 61 61 64 59 62 68 59 59 55 42 38 35 37 45 40 37 48 45 43 44 36 40 46 38 33 37 39 33 36 39 40 41 45 46 43 39 37 36 34 33 32 33 32
51 53 55 60 59 66 65 60 59 56 57 44 38 35 42 42 42 42 50 45 36 44 55 42 40 43 44 44 38 35 40 48 46 43 36 33 34 36 35 32 31 32 32 31
42 45 49 57 59 62 63 60 55 53 61 59 51 43 44 44 40 43 47 50 51 51 53 41 41 46 40 37 41 42 43 42 44 40 34 33 33 33 32 30 30 32 32 32
36 40 46 49 54 62 53 54 50 48 50 62 58 66 59 52 44 38 31 52 43 39 43 47 49 46 40 42 43 41 41 42 38 37 36 35 31 31 30 31 32 32 32 32
36 35 31 34 42 54 52 51 56 58 62 55 47 57 54 59 49 41 40 38 52 42 41 45 48 47 43 45 43 44 45 46 44 41 37 35 32 32 33 33 32 33 32 31
35 39 40 29 36 48 40 45 49 62 62 69 56 55 44 51 50 47 54 48 46 57 49 51 51 54 52 50 46 41 36 37 43 43 40 36 37 37 34 34 33 33 32 31
41 41 48 49 43 35 40 45 36 44 65 70 67 55 56 53 49 52 50 58 46 50 49 40 55 57 56 56 55 46 37 34 35 42 41 42 38 36 35 34 34 33 33 31
47 45 46 52 40 41 43 36 42 45 49 65 63 63 62 47 63 57 52 53 54 55 48 40 43 55 56 53 50 45 46 41 35 37 42 42 37 33 34 34 34 33 34 32
48 50 52 49 41 58 47 51 44 49 60 60 65 53 63 45 45 51 56 55 52 52 50 47 50 48 52 53 54 51 50 46 38 42 44 41 37 35 37 36 33 34 34 34
46 48 52 48 53 62 65 57 54 50 46 61 67 71 57 53 58 55 51 54 57 52 50 46 46 52 50 48 49 51 51 51 50 44 43 41 41 42 37 34 35 35 37 33
Wind_Direction
252 248 242 237 235 237 233 237 236 239 223 248 261 258 254 249 241 237 236 236 237 238 238 245 248 249 247 248 250 255 258 261 263 265 270 270 270 273 273 276 292 301 300 297
260 255 245 238 233 232 235 232 225 221 238 247 251 251 250 249 246 238 237 239 239 239 239 242 246 248 250 252 254 256 261 261 260 262 266 270 270 274 277 281 289 298 300 298
260 257 250 241 237 236 234 233 229 218 214 232 247 249 231 251 241 241 234 234 237 240 239 243 246 248 249 253 255 258 262 261 262 264 268 272 276 277 278 281 286 292 296 295
255 251 252 250 244 239 237 234 230 220 205 251 241 234 227 245 246 246 245 235 235 239 240 242 246 248 250 253 255 258 261 264 265 268 271 274 277 278 279 282 285 290 291 290
254 253 252 251 247 244 240 236 232 226 211 227 242 238 237 249 249 238 241 234 237 238 240 244 245 248 250 253 256 259 259 261 264 268 272 275 277 279 281 281 286 289 288 285
252 248 249 249 249 251 244 242 240 237 220 221 219 237 244 227 248 246 239 245 243 244 241 244 249 249 249 252 254 255 257 260 263 267 272 275 277 279 282 283 284 283 283 282
250 246 248 253 250 250 247 245 246 240 227 230 222 220 240 239 242 256 248 243 248 252 253 243 240 245 248 248 251 254 257 260 262 266 269 272 275 277 282 284 282 278 276 276
247 246 244 249 253 252 249 250 250 250 247 245 241 229 237 243 230 254 269 247 250 247 245 245 242 244 244 249 250 252 255 259 263 266 269 270 273 276 280 283 276 271 272 272
245 246 226 231 259 249 243 243 252 256 248 242 240 239 247 240 253 237 263 263 245 253 257 250 253 239 241 246 250 254 257 259 261 263 265 269 273 281 282 276 273 267 268 271
241 241 231 220 229 245 245 241 233 237 246 241 245 230 225 241 248 257 238 250 260 255 245 251 252 257 240 243 246 248 252 257 259 260 263 266 270 273 273 271 265 263 267 270
244 248 242 229 229 232 245 247 238 230 231 257 254 244 234 225 223 258 239 247 257 264 261 259 251 254 256 247 249 250 252 255 260 260 260 262 266 269 268 263 260 261 266 270
243 246 246 239 236 233 237 242 242 254 238 232 245 250 231 219 218 242 237 246 249 252 262 259 250 241 247 254 253 255 257 258 256 256 258 263 260 257 257 255 255 259 265 271
248 247 249 248 245 244 237 237 247 234 241 249 238 249 238 217 215 231 239 249 254 259 261 253 245 240 245 249 250 256 260 261 265 260 260 253 254 252 248 249 253 258 263 269
252 251 250 248 245 231 229 237 244 246 240 237 244 244 243 225 215 229 250 228 248 258 258 252 249 243 239 246 248 252 258 260 264 264 254 249 246 247 246 248 252 257 263 267
254 255 251 246 246 238 224 221 223 222 229 242 243 243 240 239 219 228 242 255 235 237 235 240 243 248 245 247 249 252 253 263 261 260 245 246 243 243 244 246 252 257 262 267
256 256 256 250 246 247 237 228 226 228 224 233 236 243 243 250 228 218 234 235 245 237 239 267 252 247 232 233 246 248 251 254 249 243 243 240 246 245 247 246 251 257 263 267
254 255 256 251 246 245 242 231 228 227 233 223 225 239 244 237 238 227 234 238 225 255 238 245 240 240 233 258 249 249 242 238 234 235 243 243 244 244 244 247 253 258 263 267
256 254 252 253 247 244 241 234 227 226 228 225 220 226 229 236 236 246 225 250 238 237 243 234 237 243 243 250 246 237 230 226 233 234 238 237 241 243 245 248 254 260 262 266
257 254 253 251 248 247 238 237 232 228 229 236 235 225 220 221 225 230 233 230 241 249 250 252 246 245 241 240 225 227 231 223 228 234 234 238 242 244 246 250 256 259 262 266
257 254 252 253 250 247 239 238 229 230 224 229 230 230 226 225 229 235 220 231 237 225 235 243 239 234 232 229 229 225 217 225 230 231 233 236 241 246 249 254 258 261 262 262
251 253 259 258 255 250 241 238 225 220 224 237 224 228 236 235 231 225 228 230 227 242 216 229 228 225 223 219 225 226 231 236 237 226 228 235 241 247 250 255 258 259 260 257
248 233 231 238 248 244 243 235 232 227 224 225 225 222 224 229 225 225 233 222 226 233 235 217 220 221 221 219 221 224 229 232 231 226 230 232 239 245 253 256 255 258 258 254
250 240 229 230 235 238 236 235 216 236 228 228 223 221 229 234 227 218 225 229 227 231 238 239 224 222 223 228 226 231 227 230 233 233 231 231 237 246 254 256 255 259 255 251
251 248 245 237 238 231 219 227 230 218 225 225 226 221 224 233 227 224 221 225 227 231 230 229 230 234 232 227 237 241 224 225 224 229 228 234 238 246 253 252 255 257 252 250
253 245 243 242 234 232 226 221 224 232 227 224 216 215 223 220 217 223 219 223 228 236 231 235 237 241 237 235 235 235 239 223 221 219 227 235 241 250 252 253 255 255 249 249
258 255 248 238 234 235 227 226 230 228 232 227 218 215 213 216 232 231 227 224 226 229 239 241 231 234 235 236 233 234 238 238 230 222 225 236 242 254 253 251 251 251 248 251